Lexington Weather

Lexington, Massachusetts, USA

47°F
10/22/2019 2:35am 
  • Lexington Conditions: Mostly cloudy
  • Temperature: 46.8°F / 8.2°CWarmer 1.3°F than last hour.
  • Dew Point: 45.3°FIncreased 2.0°Fsince last hour.
  • Relative Humidity: 95%Increased 3.0% since last hour.
  • Wind: Calm, 10-min avg: Calm, gust: None
  • Barometer: 30.12 in Steady
  • Visibility: 9 miles
  • Rain Today: 0.00 in
  •   

Regional Weather Roundup
for Boston, MA

        
000
ASUS41 KBOX 191300
RWRBOX

REGIONAL WEATHER ROUNDUP
NATIONAL WEATHER SERVICE BOSTON/NORTON MA
900 AM EDT SAT OCT 19 2019

NOTE:  "FAIR" INDICATES FEW OR NO CLOUDS BELOW 12,000 FEET WITH NO 
SIGNIFICANT WEATHER AND/OR OBSTRUCTIONS TO VISIBILITY.

MAZALL-191400-
EASTERN MASSACHUSETTS
  
CITY           SKY/WX    TMP DP  RH WIND       PRES   REMARKS
BOSTON         FAIR      48  34  58 NW13      30.01R                  
BEVERLY        FAIR      45  36  70 VRB7      29.99R                  
LAWRENCE       FAIR      45  35  68 NW7       30.01S                  
BEDFORD        FAIR      44  36  73 W9        30.00R                  
BLUE HILL      NOT AVBL                                               
NORWOOD        FAIR      47  36  65 W5        30.01R                  
MARSHFIELD     NOT AVBL                                               
PLYMOUTH       FAIR      45  37  73 W7        30.01R                  
TAUNTON        FAIR      46  36  68 W7        30.02R                  
NEW BEDFORD    FAIR      47  36  65 VRB6      30.01R                  
$$

MAZALL-191400-
CAPE COD AND THE ISLANDS
  
CITY           SKY/WX    TMP DP  RH WIND       PRES   REMARKS
FALMOUTH       SUNNY     45  37  76 NW7       30.01R                  
HYANNIS        NOT AVBL                                               
CHATHAM        NOT AVBL                                               
PROVINCETOWN   FAIR      49  39  68 NW13        N/A                   
NANTUCKET      FAIR      50  40  68 NW16      30.00R                  
MARTHAS VNYRD  FAIR      49  36  61 NW16G22   30.01R                  
$$
 
MAZALL-191400-
CENTRAL AND WESTERN MASSACHUSETTS
  
CITY           SKY/WX    TMP DP  RH WIND       PRES   REMARKS
WORCESTER      FAIR      41  32  70 NW7       30.00R                  
FITCHBURG      FAIR      40  34  79 CALM      30.03R                  
ORANGE         FAIR      41  34  76 CALM      30.03R                  
SPRINGFIELD    MOSUNNY   39  36  88 CALM      30.04R                  
WESTFIELD      FAIR      38  35  89 S3        30.05R                  
NORTH ADAMS    FAIR      37  33  85 NW6       30.05R                  
PITTSFIELD     FAIR      44  35  70 VRB3      30.03R                  
$$
 
RIZALL-191400-
RHODE ISLAND
  
CITY           SKY/WX    TMP DP  RH WIND       PRES   REMARKS
PROVIDENCE     FAIR      45  37  73 W6        30.04R                  
NEWPORT        FAIR      48  36  63 NW14      30.02R                  
BLOCK ISLAND   FAIR      48  34  58 N10       30.06R                  
SMITHFIELD     FAIR     N/A N/A N/A NW7       30.03R                  
WESTERLY       FAIR      48  40  73 VRB3      30.06R                  
$$
 
CTZALL-191400-
CONNECTICUT
  
CITY           SKY/WX    TMP DP  RH WIND       PRES   REMARKS
BRADLEY INTL   FAIR      45  36  70 SW3       30.05R                  
HARTFORD       FAIR      43  37  79 CALM      30.06R                  
BRIDGEPORT     FAIR      46  37  71 W6        30.07R                  
DANBURY        FAIR      42  36  79 SW7       30.08R                  
GROTON         NOT AVBL                                               
NEW HAVEN      FAIR      48  38  68 NW6       30.07R                  
CHESTER        FAIR      45  36  70 W5        30.05S                  
MERIDEN        FAIR      39  36  89 CALM      30.06S                  
WILLIMANTIC    FAIR      37  36  96 MISG      30.07R                  
OXFORD         FAIR      40  35  83 SW3       30.06R                  
$$

MEZ002-015-021-024-NHZ003-005-008-011-012-014-VTZ005-008-191400-
NORTHERN NEW ENGLAND
  
CITY           SKY/WX    TMP DP  RH WIND       PRES   REMARKS
PORTLAND ME    FAIR      47  36  65 NW9       29.97R                  
BANGOR ME      FAIR      47  35  63 NW9G22    29.90R                  
CONCORD NH     FAIR      45  32  60 NW17G23   30.00R                  
MANCHESTER NH  FAIR      47  33  58 N14       29.99R                  
NASHUA NH      FAIR      44  35  70 NW7       30.01S                  
PORTSMOUTH NH  SUNNY     47  34  61 W7        29.97R                  
JAFFREY NH     FAIR      42  32  67 VRB5      30.00R                  
KEENE NH       FAIR      39  36  89 CALM      30.03R                  
BURLINGTON VT  FAIR      45  31  58 NW9       30.07R                  
MT. WASHINGTON CLOUDY    21  16  79 NW59        N/A  WCI  -2          
$$

NYZ052-076-191400-
EASTERN NEW YORK
  
CITY           SKY/WX    TMP DP  RH WIND       PRES   REMARKS
ALBANY         FAIR      45  38  76 NW8       30.09R                  
NEW YORK CITY  FAIR      49  35  58 W7        30.09R                  
$$
 
ANZALL-191400-
MARINE OBSERVATIONS
  
STATION/POSITION TIME  TEMP    WIND        PRES    VSBY  WAVE
                       AIR SEA DIR/SP/G                  HT/PER
                 (UTC) (F)     (DEG/KT/KT) (MB)    (MI)  (FT/S)
BOSTON BUOY      1150   47 56  310/ 17/ 21 1014.4          2/ 3
BUZZARDS BAY     1200   47     320/ 13/ 15 1016.8R
NANTUCKET SOUND  NOT AVBL
MASS BAY-STELLWA 1204   47 55  310/ 14/ 19 1014.7R  1 3/4  2/ 3
ISLE OF SHOALS   1200   45     300/ 16/ 17 1014.4R
S OF BLOCK IS    1230      60                N/A           3/ 4
$$

......................KEY.........................
  SKY/WX - SKY CONDITION/PRESENT WEATHER
  TMP    - TEMPERATURE IN FAHRENHEIT
  DWPT   - DEWPOINT IN FAHRENHEIT
  RH     - RELATIVE HUMIDITY IN PERCENT
  WIND   - DIRECTION AND SPEED IN MPH
  PRES   - MEAN SEA LEVEL PRESSURE IN INCHES OF HG
  WCI    - WIND CHILL INDEX
  VSB    - VISIBILITY IN MILES
  HX     - HEAT INDEX
  TC     - TEMPERATURE IN CELSIUS
  VRB    - VARIABLE WIND DIRECTION
  N/A    - NOT AVAILABLE
  
      

Other recent Regional Weather Roundups

Tue Oct 22, 2:10am

Tue Oct 22, 2:00am

Tue Oct 22, 1:10am

Tue Oct 22, 1:00am

Tue Oct 22, 12:10am

Tue Oct 22, 12:00am

Mon Oct 21, 11:10pm

Mon Oct 21, 11:00pm

Mon Oct 21, 10:10pm

Mon Oct 21, 10:01pm

Mon Oct 21, 9:10pm

Mon Oct 21, 9:00pm

Mon Oct 21, 8:10pm

Mon Oct 21, 8:00pm

Mon Oct 21, 7:10pm

Mon Oct 21, 7:01pm

Mon Oct 21, 6:10pm

Mon Oct 21, 6:01pm

Mon Oct 21, 5:10pm

Mon Oct 21, 5:01pm

Mon Oct 21, 4:10pm

Mon Oct 21, 4:00pm

Mon Oct 21, 3:10pm

Mon Oct 21, 3:01pm

Mon Oct 21, 2:10pm

Mon Oct 21, 2:00pm

Mon Oct 21, 1:10pm

Mon Oct 21, 1:01pm

Mon Oct 21, 12:10pm

Mon Oct 21, 12:00pm

Mon Oct 21, 11:10am

Mon Oct 21, 11:00am

Mon Oct 21, 10:10am

Mon Oct 21, 10:00am

Mon Oct 21, 9:10am

Mon Oct 21, 9:00am

Mon Oct 21, 7:10am

Mon Oct 21, 7:00am

Mon Oct 21, 6:10am

Mon Oct 21, 6:00am

Mon Oct 21, 5:10am

Mon Oct 21, 5:00am

Mon Oct 21, 4:10am

Mon Oct 21, 4:00am

Mon Oct 21, 3:10am

Mon Oct 21, 3:00am

Mon Oct 21, 2:10am

Mon Oct 21, 2:01am

Mon Oct 21, 1:10am

Mon Oct 21, 1:00am

Mon Oct 21, 12:10am

Mon Oct 21, 12:00am

Sun Oct 20, 11:10pm

Sun Oct 20, 11:00pm

Sun Oct 20, 10:10pm

Sun Oct 20, 10:00pm

Sun Oct 20, 9:10pm

Sun Oct 20, 9:01pm

Sun Oct 20, 8:10pm

Sun Oct 20, 8:00pm

Sun Oct 20, 7:10pm

Sun Oct 20, 7:01pm

Sun Oct 20, 6:10pm

Sun Oct 20, 6:00pm

Sun Oct 20, 5:10pm

Sun Oct 20, 5:00pm

Sun Oct 20, 4:10pm

Sun Oct 20, 4:00pm

Sun Oct 20, 3:10pm

Sun Oct 20, 3:00pm

Sun Oct 20, 2:10pm

Sun Oct 20, 2:01pm

Sun Oct 20, 1:10pm

Sun Oct 20, 1:01pm

Sun Oct 20, 12:10pm

Sun Oct 20, 12:00pm

Sun Oct 20, 11:10am

Sun Oct 20, 11:00am

Sun Oct 20, 10:10am

Sun Oct 20, 10:00am

Sun Oct 20, 9:10am

Sun Oct 20, 9:00am

Sun Oct 20, 8:10am

Sun Oct 20, 8:00am

Sun Oct 20, 7:10am

Sun Oct 20, 7:00am

Sun Oct 20, 6:10am

Sun Oct 20, 6:00am

Sun Oct 20, 5:10am

Sun Oct 20, 5:00am

Sun Oct 20, 4:10am

Sun Oct 20, 4:00am

Sun Oct 20, 3:10am

Sun Oct 20, 3:00am

Sun Oct 20, 2:10am

Sun Oct 20, 2:00am

Sun Oct 20, 1:10am

Sun Oct 20, 1:00am

Sun Oct 20, 12:10am

Sun Oct 20, 12:00am

Sat Oct 19, 11:10pm

Sat Oct 19, 11:00pm

Sat Oct 19, 10:10pm

Sat Oct 19, 10:00pm

Sat Oct 19, 9:10pm

Sat Oct 19, 9:00pm

Sat Oct 19, 8:10pm

Sat Oct 19, 8:00pm

Sat Oct 19, 7:10pm

Sat Oct 19, 7:00pm

Sat Oct 19, 6:10pm

Sat Oct 19, 6:00pm

Sat Oct 19, 5:10pm

Sat Oct 19, 5:00pm

Sat Oct 19, 4:10pm

Sat Oct 19, 4:00pm

Sat Oct 19, 3:10pm

Sat Oct 19, 3:01pm

Sat Oct 19, 2:10pm

Sat Oct 19, 2:00pm

Sat Oct 19, 1:10pm

Sat Oct 19, 1:01pm

Sat Oct 19, 12:10pm

Sat Oct 19, 12:00pm

Sat Oct 19, 11:10am

Sat Oct 19, 11:01am

Sat Oct 19, 10:10am

Sat Oct 19, 10:00am

Sat Oct 19, 9:10am

Sat Oct 19, 8:10am

Sat Oct 19, 8:00am

Sat Oct 19, 7:10am

Sat Oct 19, 7:00am

Sat Oct 19, 6:10am

Sat Oct 19, 6:00am

Sat Oct 19, 5:10am

Sat Oct 19, 5:00am

Sat Oct 19, 4:10am

Sat Oct 19, 4:00am

Sat Oct 19, 3:10am

Sat Oct 19, 3:00am

Meta data:

ID: 82605adb-d324-46d8-a9de-d5ef7e0370bf
Link: https://api.weather.gov/products/82605adb-d324-46d8-a9de-d5ef7e0370bf